Showing default

CLUSTER II-FM7, 26410

Orbit data source: Space-Track

CLUSTER II-FM7, 26410 is a payload satellite owned by ESA (ESA) in HEO that was launched on Sun, 16 Jul 2000 UTC via a SOYUZ-U-PVB launch vehicle from the Tyuratam Missile And Space Complex (TTMTR). Payloads include a variety of satellites, spacecraft, and rockets equipped with specific instruments for various scientific and technological missions. These include communications satellites like Starlink; space stations such as the ISS; scientific satellites like the Hubble; Earth observation satellites from companies like Planet Labs, Umbra, and HawkEye 360; GPS; miniature CubeSats for education and research; and military/defense satellites.

Loading next visibility...
CLUSTER II-FM7 details
Identifier
26410, 2000-041A
Orbit
HEO
Last TLE updatein 2 days
Origin
Flag of ESAESA (ESA)
ManufacturerAstrium-Frh.
MissionOperational Civil Science
Bus & MotorCLUSTER, S400
Mass1,186 kg wet, 550 kg dry
Launch date (UTC)
2000-07-16 (25 years ago)
Launch vehicle
SOYUZ-U-PVB
Launch site
Tyuratam Missile And Space Complex (TTMTR)
Object type
Payload
Rocket body
Debris
Shape & HBRCyl + 4 Ant, 100 m
Radar Cross Section31.548 m², Large (>1 m²)

Expand to show TLE details & history

TLE from in 2 days
0 CLUSTER II-FM7
1 26410U 00041A   25017.50427681  .00001452  00000-0  00000+0 0  9997
2 26410 142.0372   4.8381 8025087 220.0567 359.0352  0.44771545 29757
Epoch: 2025-01-17T12:06Z
Definitive object data (Epoch: 2025-01-17T12:06:09.516Z)
Latitude-22.6822°
Longitude-146.06416°
Altitude8,049.935 km
Speed7.053 km/s
True Right ascension10h 10m 34s
True Declination-22° 37' 19"
Sunlit
Object was in daylight at TLE epoch
Visualization TLE readout
Latitude6.40005°
Longitude57.67526°
Altitude79,839.143 km
Speed1.93 km/s
Apparent Right ascension23h 57m 03s
Apparent Declination3° 36' 11"
Sunlit
Object is in daylight
Visualization observer readout
Local Sidereal Time16:03:19
Azimuth68.084° E
Elevation-18.912°
Doppler factor1
Orbital elements
Apogee altitude123,724.34 km
Perigee altitude7,876.5 km
Semi-major axis72,178.557 km
Eccentricity0.8025087
Inclination142.0372°
RAAN4.8381°
Arg. of periapsis220.0567°
True anomaly345.38366°
Mean anomaly359.0352°
Eccentric anomaly355.13842°
Mean motion0.11193 °/min
BSTARUnknown
Orbital period3216.41 mins
Loading maneuver chart data...
Loading historical data...
Loading historical data...
Loading historical data...
Loading historical data...
Loading historical data...
Loading historical data...
Loading historical data...
Other satellites on launch #41 in the year 2000 (2000-07-16 UTC)

CLUSTER II-FM7 Visibility forecast

Observer location: undefined°, undefined

Span
Click to sort rows by Start time (UTC) header in descending order
Start Az.
Max El. time (UTC)
Max El. Az.
Max El.
End time (UTC)
End Az.
616 mins2025-01-15 17:28:28.880Z89.088° E2025-01-15 22:25:28.880Z185.312° SSW41.873°2025-01-16 03:44:28.880Z284.453° WNW
46 mins2025-01-16 14:36:28.880Z66.274° ENE2025-01-16 15:22:28.880Z72.844° E18.682°2025-01-16 15:22:28.880Z72.844° E
|